Tracking 19638 objects as of 20-Apr-2019
HD Live streaming from Space Station
objects crossing your sky now

ARIANE 44L DEB

Track ARIANE 44L DEB now!


NORAD ID: 24722
Int'l Code: 1991-003E
Perigee: 511.2 km
Apogee: 27,442.2 km
Inclination: 7.2 °
Period: 481.4 minutes
Semi major axis: 20347 km
RCS: 0.1777 m2 (medium)
Launch date: January 15, 1991
Source: France (FR)
Launch site: FRENCH GUIANA (FRGUI)

Note: This is SATELLITE DEBRIS
aabbcc
Your satellite tracking list
Your tracking list is empty




NASA's NSSDC Master Catalog

Two Line Element Set (TLE):
1 24722U 91003E   19108.19649941 +.00000185 +00000-0 +70007-3 0  9993
2 24722 007.2295 085.3754 6617708 043.7482 352.7927 02.99109233059118
Source of the keplerian elements: AFSPC